Location: Caltech
(34.1382°N, 118.1253°W)
Time: 17:37:24
(UTC-08:00)

Iridium 49 - Visible Passes

Search period start: 12 December 2017 00:00
Search period end: 22 December 2017 00:00
Orbit: 776 x 779 km, 86.4° (Epoch: 12 December)

Date Brightness Start Highest point End Pass type
(mag) Time Alt. Az. Time Alt. Az. Time Alt. Az.
12 Dec 8.2 05:47:00 10° SE 05:51:24 28° E 05:55:48 10° NNE visible
12 Dec 5.9 18:00:29 10° N 18:05:41 69° E 18:10:52 10° S visible
12 Dec 9.1 19:44:40 10° WNW 19:45:41 11° WNW 19:46:42 10° W visible
13 Dec 8.9 05:15:22 10° ESE 05:18:10 15° E 05:20:58 10° NE visible
13 Dec 6.6 17:27:20 10° NNE 17:32:06 35° E 17:36:48 10° SSE visible
13 Dec 8.4 19:08:39 10° NW 19:12:30 21° W 19:16:21 10° SW visible
14 Dec 6.2 06:19:36 10° S 06:24:48 83° E 06:30:03 10° N visible
14 Dec 7.3 18:34:20 10° NNW 18:39:12 41° W 18:44:02 10° SSW visible
15 Dec 7.4 05:46:31 10° SSE 05:51:23 42° E 05:56:17 10° NNE visible
15 Dec 6.1 18:00:33 10° N 18:05:47 80° W 18:10:59 10° S visible
16 Dec 8.5 05:14:09 10° SE 05:18:05 22° E 05:22:00 10° NNE visible
16 Dec 6.2 17:27:09 10° N 17:32:15 52° E 17:37:19 10° SSE visible
16 Dec 8.9 19:09:45 10° NW 19:12:25 14° W 19:15:05 10° WSW visible
17 Dec 9.1 04:43:31 10° E 04:44:53 11° ENE 04:46:15 10° ENE visible
17 Dec 6.0 06:19:45 10° S 06:24:55 66° W 06:30:06 10° N visible
17 Dec 8.1 18:34:50 10° NNW 18:39:11 27° W 18:43:31 10° SW visible
18 Dec 6.5 05:46:17 10° S 05:51:26 64° E 05:56:35 10° N visible
18 Dec 6.8 18:00:46 10° NNW 18:05:50 53° W 18:10:53 10° SSW visible
19 Dec 7.8 05:13:28 10° SSE 05:18:03 32° E 05:22:39 10° NNE visible
19 Dec 6.0 17:27:08 10° N 17:32:23 79° E 17:37:35 10° S visible
20 Dec 8.8 04:41:31 10° ESE 04:44:47 17° E 04:48:03 10° NE visible
20 Dec 6.4 06:20:07 10° SSW 06:25:03 44° W 06:30:02 10° NNW visible
20 Dec 8.7 18:35:36 10° NW 18:39:08 19° W 18:42:39 10° SW visible
21 Dec 6.0 05:46:17 10° S 05:51:29 86° W 05:56:44 10° N visible
21 Dec 7.7 18:01:09 10° NNW 18:05:52 35° W 18:10:33 10° SSW visible
